Regional Weather Roundup
Issued by NWS Portland, ME

Current Version | Previous Version | Text Only | Print | Product List | Glossary Off
Versions: 1 2 3 4 5 6 7 8 9 10 11 12 13 14 15 16 17 18 19 20 21 22 23 24 25 26 27 28 29 30 31 32 33 34 35 36 37 38 39 40 41 42 43 44 45 46 47 48 49 50
000 ASUS41 KGYX 272310 RWRGYX WEATHER ROUNDUP FOR MAINE AND NEW HAMPSHIRE NATIONAL WEATHER SERVICE GRAY ME 700 PM EDT MON MAR 27 2017 MEZ002-005-006-010-012-015-018-020-021-024-026-027-029-280000- MAINE CITY SKY/WX TMP DP RH WIND PRES REMARKS PORTLAND CLOUDY 35 34 96 NE6 30.05S FOG SANFORD MIX PCPN 35 34 96 N9 30.04R FOG BAR HARBOR MIX PCPN 32 31 96 E10 30.12F FOG WISCASSET CLOUDY 34 33 96 VRB6 30.07S FOG ROCKLAND MIX PCPN 33 32 96 NE15 30.06F FOG FRYEBURG CLOUDY 34 32 92 NE6 30.06S LEWISTONAUBURN MIX PCPN 33 32 96 N8 30.06F FOG AUGUSTA CLOUDY 32 29 88 NE8 30.07F FOG WATERVILLE MIX PCPN 32 31 96 VRB5 30.06S FOG BANGOR FRZ RAIN 31 29 92 E8 30.12F FOG GREENVILLE N/A 26 25 96 SE12G17 30.02F WCI 16 MILLINOCKET SNOW 29 29 100 SE5 30.15S VSB 1/2 HOULTON LGT SNOW 27 25 92 VRB6 30.15F VSB 1 PRESQUE ISLE FLURRIES 26 24 92 SE8 30.16F FRENCHVILLE SNOW 23 19 85 SE12 30.11F VSB 1/2 WCI 12 CARIBOU LGT SNOW 25 23 92 E7 30.14F VSB 1 $$ NHZ002-005-008-009-011-012-014-280000- NEW HAMPSHIRE CITY SKY/WX TMP DP RH WIND PRES REMARKS PORTSMOUTH CLOUDY 37 36 95 N8G20 30.01S FOG ROCHESTER CLOUDY 36 33 89 N7 30.02S NASHUA CLOUDY 37 37 100 N5 30.03S FOG MANCHESTER CLOUDY 38 35 89 N7 30.01S FOG CONCORD CLOUDY 37 34 89 N5 30.03S LACONIA CLOUDY 34 32 92 E13 30.03F PLYMOUTH CLOUDY 35 33 91 CALM 30.03S BERLIN CLOUDY 36 29 75 CALM 30.00R WHITEFIELD CLOUDY 36 30 79 E7 29.98R JAFFREY FOG 36 35 96 N3 29.99S VSB 1/4 KEENE CLOUDY 38 35 89 CALM 30.01S LEBANON CLOUDY 36 35 96 CALM 30.00S MT WASHINGTON FOG 34 34 100 W36 N/A VSB 1/16WCI 19 $$ VTZ005-007-008-280000- VERMONT CITY SKY/WX TMP DP RH WIND PRES REMARKS ST JOHNSBURY N/A 37 35 92 MISG 29.98S MONTPELIER CLOUDY 35 34 96 S6 30.00F BURLINGTON LGT RAIN 41 37 86 S6 29.95R FOG $$ MAZ007-012-024-CTZ003-RIZ002-NYZ038-NYZ072-280000- SOUTHERN NEW ENGLAND AND NY CITY SKY/WX TMP DP RH WIND PRES REMARKS BOSTON CLOUDY 42 41 96 N10 30.01R WORCESTER FOG 37 36 96 N5 29.98S VSB<1/4 NANTUCKET CLOUDY 45 43 93 SW10 29.99F FOG PROVIDENCE LGT RAIN 44 41 89 N6 30.00R FOG HARTFORD CLOUDY 41 38 89 CALM 30.00F ALBANY CLOUDY 46 39 76 CALM 29.98S NEW YORK CITY MOCLDY 49 43 80 NE7 29.99R $$ ANZ081-ANZ082-ANZ150-NHZ014-MEZ023>029-280000- COASTAL MARINE OBSERVATIONS STATION/POSITION TIME TEMP WIND PRES WAVE AIR SEA DIR/SP/G HT/PER (UTC) (F) (DEG/KT/KT) (MB) (FT/S) MOUNT DESERT ROC 2300 36 1018.0F MATINICUS ROCK 2200 36 80/ 23/ 25 1016.9F ISLE OF SHOALS 2200 38 360/ 19/ 20 1015.5S JEFFREYS LEDGE 2236 42 N/A 6/ 7 CASHES LEDGE BUO 2250 40 40 1015.2F 8/ 7 GEORGES BANK BUO 2250 45 41 1017.5F 5/ 6 $$ .............KEY.............. WCI - WIND CHILL TC - TEMPERATURE IN CELSIUS VSB - VISIBILITY IN MILES HX - HEAT INDEX FAIR- INDICATES FEW OR NO CLOUDS BELOW 12,000 FT, WITH NO SIGNIFICANT WEATHER AND/OR OBSTRUCTIONS TO VISIBILITY.

USA.gov is the U.S. government's official web portal to all federal, state and local government web resources and services.